Погода в Алтае

Россия / Алтайский край     53°00′16″N   83°22′51″E
темп.,
°C
ветер,
м/с
пор.,
м/с
влажн.,
%
обл.,
%
осадки,
мм/ч
давл.,
гПа
погр.,
м
13 мая, чт
чт1301:00+12сз22505 0.0 101517
04:00+10ссз22535 0.0 101412
07:00+11ююз235825 0.0 101461
10:00+17зюз34385 0.0 1014590
13:00+20ююз353147 0.0 10132767
16:00+18зюз974094 0.0 10121582
19:00+15юз6657100 0.0 10141067
22:00+12з1272100 0.0 101469
14 мая, пт
пт1401:00+11ссз248689 0.4 1015216
04:00+9сз369033 0.0 1015172
07:00+10ссз368792 0.1 1017306
10:00+10ссз4882100 0.1 1019412
13:00+16с455227 0.1 10191436
16:00+18ссз673699 0.0 10202129
19:00+16с564288 0.0 1022917
22:00+11с334868 0.0 102425
15 мая, сб
сб1501:00+10ссз224184 0.0 102511
04:00+8зсз114345 0.0 102510
07:00+9юз234954 0.0 102658
10:00+16зюз453682 0.0 1026733
13:00+20зюз443032 0.0 10241219
16:00+22зюз452922 0.0 10221532
19:00+22зюз463476 0.0 1021636
22:00+16зюз33435 0.0 102137
16 мая, вс
вс1601:00+14юз48485 0.0 1019121
04:00+13юз412525 0.0 1018184
07:00+14юз5136069 0.4 1018266
10:00+20юз71046100 0.3 1016570
13:00+22з4651100 1.5 10161039
16:00+26з683558 0.0 10142509
19:00+19с6106686 0.0 1013259
22:00+16юз5985100 3.8 1015175
17 мая, пн
пн1701:00+14зюз22893 4.4 101624
04:00+13с23925 0.0 101638
07:00+13с249030 0.0 1017128
10:00+18ссз2268100 0.0 1017577
13:00+23зсз33445 0.0 10161317
16:00+25зсз343639 0.0 10151547
19:00+26зюз24425 0.0 1014755
22:00+20юз48555 0.0 1013101